Location: Waco, TX
(31.5480°N, 97.1670°W)
Time: 11:08:22
(UTC-05:00)

ISS - Pass Details

Date: 15 October 2018
Orbit: 403 x 408 km, 51.6° (Epoch: 23 October)

Event Time Altitude Azimuth Distance (km) Brightness Sun altitude
Rises 17:22:39 0° 336° (NNW) 2,333 0.1 18.3°
Reaches altitude 10° 17:26:33 10° 22° (NNE) 1,469 -1.3 17.6°
Maximum altitude 17:27:01 10° 30° (NNE) 1,456 -1.4 17.5°
Drops below altitude 10° 17:27:27 10° 38° (NE) 1,468 -1.4 17.4°
Sets 17:31:21 0° 85° (E) 2,325 -0.6 16.6°
